FW5642 Weather Reports


Display with metric or nautical units.
time (UTC)temp
F
wind
direction
speed
MPH
gust
MPH
rain 1hr
in
rain 24hr
in
rain mn
in
humidity
%
barometer
mb
20260902191536 67 280 2.0 9.0 0.00 0.02 0.00 59 1009.1
20260902190106 68 353 2.0 7.0 0.00 0.02 0.00 57 1008.8
20260902184536 68 326 1.0 4.0 0.00 0.02 0.00 59 1009.0
20260902183107 68 15 0.0 4.0 0.00 0.02 0.00 57 1009.2
20260902181532 68 37 1.0 7.0 0.00 0.02 0.00 57 1009.4
20260902180107 69 67 1.0 7.0 0.00 0.02 0.00 59 1009.4
20260902173032 65 91 0.0 6.0 0.00 0.02 0.00 67 1010.0
20260902171604 63 121 0.0 2.0 0.00 0.02 0.00 68 1010.2
20260902170107 62 61 0.0 4.0 0.00 0.02 0.00 69 1010.5
20260902164529 62 65 0.0 4.0 0.00 0.02 0.00 71 1010.6
20260902163030 62 110 0.0 4.0 0.00 0.02 0.00 73 1010.7
20260902161536 61 96 0.0 0.0 0.00 0.02 0.00 75 1010.8
20260902160035 60 48 0.0 4.0 0.00 0.02 0.00 76 1011.0
20260902154533 59 24 0.0 4.0 0.00 0.02 0.00 79 1011.2
20260902153045 58 292 0.0 0.0 0.00 0.02 0.00 81 1011.4
20260902151536 58 261 0.0 0.0 0.00 0.02 0.00 84 1011.5
20260902150033 56 201 0.0 3.0 0.00 0.02 0.00 87 1011.6
20260902144531 54 189 0.0 0.0 0.00 0.02 0.00 89 1011.6
20260902141533 51 163 0.0 0.0 0.00 0.02 0.00 90 1011.7
20260902140036 50 112 0.0 0.0 0.00 0.02 0.00 90 1011.8
20260902134536 49 132 0.0 0.0 0.00 0.02 0.00 89 1011.8
20260902133037 50 135 0.0 0.0 0.00 0.02 0.00 88 1011.9
20260902131538 50 135 0.0 0.0 0.00 0.02 0.00 87 1012.1
20260902130037 50 112 0.0 0.0 0.00 0.02 0.00 86 1012.2
20260902124538 50 112 0.0 0.0 0.00 0.02 0.00 85 1012.0
20260902123038 51 121 0.0 0.0 0.00 0.02 0.00 84 1012.1
20260902121533 52 135 0.0 0.0 0.00 0.02 0.00 81 1012.1
20260902120031 54 139 0.0 0.0 0.00 0.02 0.00 79 1012.2
20260902114532 55 216 0.0 0.0 0.00 0.02 0.00 78 1012.0
20260902113145 56 206 0.0 4.0 0.00 0.02 0.00 76 1012.1
20260902111536 58 252 0.0 3.0 0.00 0.02 0.00 74 1012.0
20260902110142 58 254 2.0 14.0 0.00 0.02 0.00 74 1012.0
20260902103035 57 251 2.0 8.0 0.00 0.02 0.00 75 1012.0
20260902101536 58 253 1.0 10.0 0.00 0.02 0.00 74 1012.0
20260902100037 58 260 3.0 12.0 0.00 0.02 0.00 74 1012.1
20260902094535 58 277 4.0 11.0 0.00 0.02 0.00 74 1012.1
20260902093034 58 291 1.0 7.0 0.00 0.02 0.00 74 1012.1
20260902091536 59 290 2.0 9.0 0.00 0.02 0.00 74 1012.2
20260902090108 59 259 2.0 9.0 0.00 0.02 0.00 73 1012.4
20260902084543 59 258 3.0 11.0 0.00 0.02 0.00 73 1012.2
20260902083036 59 269 3.0 10.0 0.00 0.02 0.00 74 1012.1
20260902081605 59 286 5.0 14.0 0.00 0.02 0.00 74 1012.2
20260902080034 59 285 5.0 12.0 0.00 0.02 0.00 74 1012.3
20260902074534 59 299 5.0 13.0 0.00 0.02 0.00 73 1012.4
20260902073035 59 297 4.0 8.0 0.00 0.02 0.00 72 1012.6
20260902071536 60 292 4.0 13.0 0.00 0.02 0.00 71 1012.7
20260902070033 60 291 5.0 15.0 0.00 0.02 0.00 71 1012.7
20260902064537 61 279 6.0 13.0 0.00 0.02 0.02 71 1012.4
20260902063035 60 291 7.0 15.0 0.00 0.02 0.02 72 1012.6
20260902061607 60 282 7.0 16.0 0.01 0.02 0.02 74 1012.2
20260902060036 59 278 7.0 14.0 0.02 0.02 0.02 76 1012.2
20260902054534 59 282 5.0 14.0 0.02 0.02 0.02 77 1012.6
20260902053030 59 287 5.0 14.0 0.02 0.02 0.01 73 1012.2
20260902051530 62 288 6.0 15.0 0.01 0.01 0.00 66 1011.9
20260902043030 64 298 6.0 10.0 0.00 0.00 0.00 62 1011.7
20260902041641 64 291 6.0 15.0 0.00 0.00 0.00 62 1011.6
20260902040143 64 292 6.0 22.0 0.00 0.00 0.00 62 1011.6
20260902034535 64 299 5.0 14.0 0.00 0.00 0.00 62 1011.4
20260902033030 64 300 6.0 13.0 0.00 0.00 0.00 61 1011.0
20260902031536 64 298 7.0 13.0 0.00 0.00 0.00 61 1011.0
20260902024536 65 296 5.0 11.0 0.00 0.00 0.00 60 1011.2
20260902023030 65 291 5.0 13.0 0.00 0.00 0.00 59 1010.9
20260902021628 66 287 5.0 13.0 0.00 0.00 0.00 57 1010.7
20260902020035 66 291 8.0 17.0 0.00 0.00 0.00 56 1010.3
20260902014532 67 282 9.0 23.0 0.00 0.00 0.00 56 1010.1
20260902013150 67 277 8.0 20.0 0.00 0.00 0.00 56 1009.9
20260902011534 67 281 8.0 20.0 0.00 0.00 0.00 57 1009.7
20260902010034 67 292 8.0 22.0 0.00 0.00 0.00 56 1009.6
20260902004535 69 288 10.0 22.0 0.00 0.00 0.00 55 1009.6
20260902000034 68 279 10.0 24.0 0.00 0.00 0.00 56 1009.6
20260901234610 68 281 10.0 23.0 0.00 0.00 0.00 55 1009.7
20260901233034 69 277 10.0 20.0 0.00 0.00 0.00 54 1009.7
20260901230035 69 284 8.0 19.0 0.00 0.00 0.00 54 1009.8
20260901224606 70 277 9.0 20.0 0.00 0.00 0.00 50 1009.7
20260901223034 74 277 9.0 24.0 0.00 0.00 0.00 48 1009.6
20260901221641 74 276 7.0 18.0 0.00 0.00 0.00 49 1009.5
20260901220031 74 282 8.0 21.0 0.00 0.00 0.00 49 1009.4
20260901214531 74 282 9.0 21.0 0.00 0.00 0.00 49 1009.5
20260901213035 73 287 7.0 21.0 0.00 0.00 0.00 51 1009.5
20260901211534 72 282 8.0 18.0 0.00 0.00 0.00 51 1009.5
20260901204640 72 286 8.0 16.0 0.00 0.00 0.00 52 1009.8
20260901203031 73 293 9.0 22.0 0.00 0.00 0.00 52 1009.8
20260901201535 73 302 8.0 17.0 0.00 0.00 0.00 51 1009.9
20260901200031 73 283 5.0 14.0 0.00 0.00 0.00 52 1010.0
20260901194609 73 287 8.0 16.0 0.00 0.00 0.00 52 1010.2
20260901193031 73 296 6.0 15.0 0.00 0.00 0.00 52 1010.4